Lapse_Rate
5.5 5.4 5.7 5.8 5.6 5.6 5.9 6.1 6.1 6.0 6.2 6.4 6.5 6.4 6.6 6.7 6.5 6.5 6.6 6.5 6.6 6.4 6.4 6.3 6.3 6.2 6.2 6.0 6.2 6.6 6.9 7.5 7.5 7.1 7.2 6.9 6.8 6.6 6.9 7.0 7.3 7.5 7.6 7.8 7.8
5.4 5.2 5.4 5.4 5.7 5.6 5.7 5.9 6.0 6.1 6.2 6.3 6.6 6.5 6.7 6.8 6.8 6.6 6.7 6.6 6.4 6.2 6.0 6.0 6.0 6.0 5.8 5.7 5.8 6.2 7.0 7.5 7.1 6.9 6.8 6.7 6.6 6.6 7.0 6.9 7.2 7.3 7.3 7.5 7.6
5.0 5.0 5.1 5.3 5.3 5.4 5.3 5.6 5.9 6.0 6.2 6.2 6.3 6.4 6.8 6.8 6.7 6.5 6.5 6.5 6.1 6.1 6.2 6.2 6.0 6.1 5.8 5.8 5.9 6.2 6.7 7.1 6.8 6.5 6.2 6.3 6.6 6.4 6.8 7.0 7.2 7.0 7.0 7.2 7.4
4.9 4.9 5.0 5.2 5.2 5.1 5.1 5.2 5.4 5.9 6.0 6.1 6.3 6.5 6.8 6.9 6.1 6.2 6.3 6.3 6.3 6.5 6.3 6.4 6.3 6.1 6.3 5.9 5.9 5.9 6.3 6.3 6.4 6.8 6.9 6.7 6.5 6.8 6.5 7.1 6.8 7.3 7.5 7.6 7.6
4.7 4.8 4.9 5.1 4.9 5.1 5.1 5.0 5.4 5.4 5.8 6.1 6.2 6.4 6.6 6.9 6.6 6.3 6.2 6.1 6.0 6.1 6.1 6.0 6.0 5.9 5.7 5.7 5.9 6.2 6.0 6.0 6.0 6.7 6.9 6.9 6.9 6.4 7.0 7.1 6.8 6.8 7.1 7.4 7.5
4.6 4.4 4.6 4.8 4.9 5.0 5.0 5.0 5.4 5.4 5.5 5.6 6.0 6.3 6.8 6.7 6.6 6.3 6.5 6.3 6.0 6.1 6.0 5.9 5.8 5.7 5.3 5.7 5.7 5.6 6.1 5.9 6.1 6.7 6.4 6.5 6.7 5.8 7.6 6.7 6.9 6.5 6.8 6.8 7.1
4.7 4.7 4.8 5.1 5.0 5.2 5.0 4.8 5.2 5.5 5.5 5.5 5.5 6.0 6.7 7.0 6.3 6.2 6.4 6.8 6.5 6.2 6.2 5.9 5.9 5.8 5.5 5.5 5.7 5.9 6.1 6.2 6.0 5.8 5.9 6.5 6.3 6.2 6.5 6.7 6.8 6.7 6.9 6.8 6.9
4.9 4.8 4.8 5.2 5.3 5.4 5.2 5.1 5.1 5.5 5.6 5.4 5.8 5.6 6.3 6.8 6.7 6.7 6.3 6.3 6.9 6.7 6.3 6.1 6.0 5.8 5.7 5.7 5.8 5.5 5.4 6.1 6.5 6.3 5.8 5.9 6.6 6.9 6.3 6.6 6.6 6.6 6.6 6.7 6.9
4.9 5.0 5.1 5.0 5.4 5.5 5.4 5.2 5.1 5.0 5.2 5.4 5.5 5.8 6.2 6.8 6.8 6.8 6.9 6.3 6.2 6.3 6.4 6.4 5.8 5.7 5.8 5.9 5.6 5.9 6.2 6.7 6.8 6.2 5.9 5.6 6.5 6.4 6.1 6.2 5.9 6.3 6.3 6.4 6.5
4.9 5.1 5.1 5.3 5.5 5.8 5.6 5.5 5.4 5.1 5.4 5.6 5.6 5.8 5.8 5.9 6.6 6.7 6.6 6.7 6.2 5.9 6.2 6.4 6.0 5.7 6.0 5.9 6.4 7.4 6.9 6.3 6.0 6.5 5.8 5.8 5.9 6.1 6.2 6.0 5.7 6.6 6.6 6.5 6.5
5.1 5.0 5.1 5.2 5.2 5.7 5.5 5.8 5.6 5.4 5.5 6.0 5.6 5.7 5.8 5.8 6.1 7.0 6.9 6.3 6.8 6.6 6.1 5.6 5.8 6.1 6.4 6.2 6.2 6.3 6.3 6.3 6.3 6.3 6.0 5.9 5.8 6.0 6.0 5.9 5.8 5.9 6.6 6.3 6.8
5.0 4.8 5.0 4.8 5.2 5.4 5.6 5.8 5.8 5.0 5.2 5.7 5.9 5.8 5.9 6.1 6.5 6.8 6.6 6.8 6.6 6.4 5.9 5.6 5.5 6.2 6.1 5.8 6.1 6.1 6.1 6.2 6.4 6.3 5.6 5.9 5.9 6.1 6.0 6.0 6.2 6.2 6.5 6.6 6.4
5.1 4.8 4.6 4.7 5.1 5.3 5.7 5.7 5.8 5.4 5.3 5.9 5.9 5.7 5.7 6.0 6.3 6.7 6.4 6.3 6.5 6.2 6.0 5.8 6.2 5.7 5.8 5.7 5.7 5.9 6.1 6.3 6.3 6.4 6.0 6.0 6.3 7.1 6.8 6.1 6.2 6.6 6.4 6.2 6.1
4.4 4.7 4.6 5.2 5.6 5.6 5.7 5.7 5.6 5.8 5.7 5.2 5.4 5.5 5.7 6.0 5.8 6.1 6.5 6.1 6.1 6.0 5.5 5.5 5.5 5.7 5.7 5.7 6.2 6.0 6.5 6.1 5.9 6.1 6.5 6.9 6.5 6.9 6.8 6.6 6.1 5.8 5.7 6.1 6.5
4.3 4.3 4.9 5.0 5.4 5.3 5.5 5.3 5.1 5.7 5.9 5.2 5.0 5.2 5.5 5.6 5.5 5.6 6.1 6.4 5.7 4.9 5.4 6.0 5.5 5.6 5.7 5.8 6.0 5.8 6.1 6.0 5.8 6.0 6.0 6.2 6.8 6.2 6.5 6.6 6.6 6.1 6.2 6.1 6.4
4.6 4.7 4.9 5.1 5.2 5.4 5.5 5.2 5.3 5.5 5.5 5.5 5.3 5.4 5.5 5.6 5.5 5.6 5.6 5.6 5.7 5.4 5.3 5.5 5.4 5.1 5.3 5.4 5.6 5.8 5.5 5.6 5.7 6.0 6.5 6.1 7.2 6.4 7.0 6.7 6.0 6.2 6.2 6.2 6.1
4.8 4.6 4.6 4.8 4.8 5.0 5.1 4.9 5.0 5.4 5.6 5.2 4.9 5.2 5.2 5.1 5.2 5.3 5.2 5.2 5.2 5.2 5.8 5.5 5.3 5.0 5.1 5.0 5.4 5.4 5.6 6.5 6.8 6.7 6.5 7.0 7.5 6.4 5.6 5.7 5.7 5.6 5.8 6.2 6.4
4.7 4.6 4.6 4.6 4.6 4.8 4.8 4.7 4.7 4.8 5.0 5.1 5.1 5.0 5.0 5.0 5.0 4.8 5.3 5.6 5.0 4.7 5.0 5.6 6.4 5.5 5.3 5.9 6.4 6.4 6.3 6.8 7.0 7.8 8.3 8.0 7.2 6.9 5.6 5.2 5.4 5.8 5.9 6.2 6.8
4.7 4.6 4.5 4.4 4.4 4.7 4.7 4.4 4.9 4.4 4.4 5.1 5.5 5.3 5.6 5.3 4.9 4.7 5.2 5.3 5.9 5.4 5.5 5.4 5.7 5.1 5.8 5.8 6.5 7.2 6.4 7.2 7.6 7.4 8.1 7.6 7.6 6.4 5.8 5.3 5.5 5.7 5.4 5.5 5.7
4.2 4.4 4.4 4.6 4.8 4.9 4.9 4.6 4.5 4.7 4.7 4.7 4.8 4.8 5.2 5.7 5.4 5.8 5.8 5.9 6.2 5.8 5.6 5.8 5.7 6.1 6.1 6.5 7.0 7.2 7.5 7.4 7.5 7.5 7.9 9.1 8.8 9.0 6.3 5.3 5.8 5.5 5.5 5.6 5.4
4.4 4.4 4.5 4.7 4.7 4.5 4.3 4.3 4.6 5.0 5.1 4.8 4.7 4.8 4.9 5.1 5.1 5.4 5.5 6.0 6.1 7.0 6.5 6.5 6.9 6.5 7.2 7.3 6.8 6.8 7.0 6.8 6.7 6.9 7.6 8.0 8.5 7.8 7.0 6.6 6.3 6.3 6.2 6.1 6.1
4.5 4.4 4.8 4.9 4.7 4.5 4.6 4.8 4.9 4.7 5.0 4.7 4.9 4.6 4.8 5.0 5.0 5.2 5.2 5.4 6.1 6.7 7.2 7.2 7.0 6.7 7.4 7.6 7.6 6.7 6.4 6.5 6.0 6.9 6.9 7.2 7.6 7.4 7.2 6.9 7.0 7.1 6.9 6.6 6.6
4.8 4.6 4.8 4.8 4.9 4.8 4.8 4.8 4.8 4.7 4.8 4.8 4.7 4.7 5.2 5.5 5.8 5.7 5.9 6.1 6.6 6.8 7.5 7.7 8.4 8.6 7.9 7.5 7.7 7.7 7.1 6.8 6.6 6.5 6.7 7.3 7.5 6.5 6.7 7.0 7.2 7.2 7.0 7.1 6.9
4.9 4.7 4.9 5.1 5.3 5.1 5.0 4.9 5.0 5.2 5.3 5.3 5.2 5.4 5.6 6.0 6.4 6.5 6.9 7.1 6.9 7.0 7.5 7.6 7.7 8.4 9.2 9.2 9.0 8.4 7.3 6.8 6.7 6.8 6.7 6.7 7.0 6.9 6.8 7.1 7.2 6.9 7.3 7.2 7.0
5.2 5.1 5.4 5.4 5.1 5.4 5.5 5.3 5.5 5.6 5.6 5.8 5.9 6.4 6.5 6.4 6.6 6.7 7.0 6.9 7.3 7.0 7.8 7.6 7.7 8.1 8.1 8.2 8.3 8.6 8.4 8.1 7.6 7.4 7.7 7.4 7.5 7.1 7.3 7.0 7.6 7.5 7.4 7.7 7.5
5.4 5.6 5.6 5.5 5.6 5.7 5.8 5.9 6.1 5.9 6.0 6.2 6.1 6.3 6.2 6.3 6.9 6.6 7.0 7.3 6.7 7.2 7.3 7.5 7.6 7.8 8.0 8.1 8.3 8.3 8.3 8.2 8.1 8.0 8.1 8.2 8.2 8.2 8.1 8.1 7.8 7.7 7.6 7.8 7.7
5.8 5.8 5.6 5.4 5.6 5.8 5.8 6.0 6.0 5.9 6.0 6.3 6.3 6.4 6.7 7.0 6.6 6.5 6.6 6.6 7.2 7.3 7.6 7.0 7.0 7.5 7.9 8.3 8.6 8.5 8.0 8.4 8.3 8.2 8.2 8.2 8.3 8.3 8.5 8.1 8.0 7.9 7.8 7.8 7.9
Wind_Speed
2 0 1 3 4 7 8 11 14 16 18 20 23 23 25 24 29 13 6 4 4 10 4 5 5 5 6 6 6 4 7 10 9 8 8 4 5 3 4 6 4 5 3 4 18
4 3 1 2 4 7 9 11 13 14 15 18 22 26 27 26 14 10 6 5 8 12 7 7 8 10 6 6 4 10 10 11 5 9 10 5 7 4 5 7 8 7 7 5 15
5 2 1 2 3 6 9 11 13 14 15 16 18 23 27 24 10 3 4 7 7 8 9 10 8 8 11 7 8 8 14 9 9 8 5 9 11 4 9 12 10 8 1 10 13
5 2 0 2 4 5 7 13 13 14 17 16 18 19 25 8 6 4 5 7 7 8 8 9 8 10 9 10 6 12 14 12 11 4 7 11 9 13 13 17 7 6 4 11 16
7 4 2 2 5 8 10 12 13 15 15 15 15 17 10 7 9 4 2 6 10 6 5 6 8 7 11 5 7 14 15 11 11 9 13 13 16 15 20 17 16 11 7 10 14
10 6 1 1 4 7 11 15 15 15 15 16 12 12 6 12 5 5 6 9 12 12 14 12 7 6 8 12 11 7 11 15 15 14 14 15 19 16 18 10 12 12 15 16 15
12 8 4 1 3 8 11 16 17 16 16 14 11 6 7 14 7 11 12 9 8 11 14 9 11 12 2 9 10 10 15 16 17 14 14 8 14 14 13 2 5 5 7 11 15
14 10 4 2 4 9 14 17 19 17 12 8 9 5 9 2 8 9 6 6 3 3 8 7 7 12 13 7 9 11 16 16 2 4 6 7 14 12 7 6 6 9 10 11 12
13 11 7 3 6 10 17 17 13 4 1 7 6 6 10 2 3 3 2 6 3 3 2 1 5 7 5 14 13 14 13 15 15 10 11 11 13 3 8 10 15 14 14 13 13
13 10 5 4 7 11 17 9 5 7 4 4 2 4 5 2 2 9 2 1 3 8 4 6 6 9 11 12 15 15 14 12 12 4 8 14 18 18 21 19 16 16 15 15 16
14 9 5 3 7 10 6 4 4 5 6 6 2 6 10 4 14 5 2 10 7 7 11 10 9 13 16 17 20 20 21 21 19 17 20 22 24 20 17 18 18 19 19 18 18
12 10 5 1 6 5 2 4 4 3 9 9 13 17 19 10 9 14 9 9 11 18 11 12 18 18 15 14 18 19 22 23 21 16 14 18 25 22 24 25 22 20 19 18 16
9 7 3 3 3 2 9 7 1 6 4 5 3 6 4 6 6 5 7 5 12 17 20 23 16 2 10 15 17 19 21 21 24 19 21 24 32 19 7 1 8 10 11 12 11
10 6 1 4 5 2 3 3 2 7 4 3 2 2 3 4 4 2 3 5 5 10 14 17 17 24 24 25 17 24 16 16 18 16 18 11 17 16 16 17 6 8 9 9 10
10 7 4 2 7 4 4 5 7 4 4 3 4 3 2 5 6 3 2 6 6 7 5 5 5 10 17 21 20 29 17 18 18 20 19 24 13 15 2 9 11 7 10 11 12
10 8 6 3 1 4 4 2 5 3 6 5 2 2 1 0 1 4 3 4 3 7 10 16 11 8 10 9 13 10 9 14 13 12 16 24 17 19 13 4 3 8 9 11 12
13 10 2 1 3 3 4 4 3 5 3 5 2 2 3 4 2 3 3 5 6 5 10 7 12 10 12 15 11 9 8 8 10 12 16 11 11 17 8 6 8 8 9 11 11
18 13 4 2 2 5 2 2 6 3 2 2 2 8 4 4 1 1 5 5 1 6 10 9 9 2 2 12 12 18 20 10 15 15 16 10 10 4 11 7 5 6 7 8 9
18 3 3 2 2 3 2 3 3 3 2 2 8 13 12 2 4 5 11 11 5 3 3 4 8 12 3 9 9 10 11 17 23 24 16 16 5 9 7 3 1 3 4 6 6
4 3 3 5 2 1 2 5 3 2 1 1 4 4 9 11 9 7 7 4 6 5 2 2 8 6 8 15 14 15 6 7 8 10 25 20 23 17 11 7 6 4 3 4 3
3 4 3 1 1 2 3 5 3 2 5 4 7 11 11 12 12 13 8 13 15 13 8 11 12 12 14 7 9 5 5 3 6 5 5 7 8 4 8 7 3 3 5 5 3
3 3 3 2 3 2 3 4 1 6 2 3 4 7 10 10 11 14 15 16 13 18 18 9 6 9 19 21 17 17 21 15 6 5 4 6 4 3 4 3 6 5 4 3 4
3 4 3 1 5 5 3 5 6 7 7 6 8 8 7 13 14 14 18 18 17 18 13 15 13 15 24 22 24 19 21 16 15 10 15 10 3 6 8 11 9 9 9 6 7
3 4 0 1 1 5 7 7 7 1 5 7 10 10 11 13 14 10 18 13 10 19 21 14 16 23 18 18 12 7 7 8 10 4 9 9 16 14 12 15 13 11 11 11 9
1 3 2 4 4 5 4 2 6 2 2 3 3 8 5 4 12 15 8 9 11 15 7 5 13 20 23 23 23 21 21 19 19 20 17 21 20 17 15 15 15 12 12 8 9
4 4 2 5 5 6 6 6 8 8 5 7 10 11 10 13 16 19 18 18 16 15 10 10 11 15 22 25 24 25 24 26 27 25 26 24 24 18 18 15 16 10 8 10 8
1 2 3 7 7 6 7 9 6 3 7 10 10 12 13 15 14 16 16 17 18 18 18 9 7 10 23 25 23 19 28 23 23 25 23 22 22 18 15 11 12 9 6 6 3
Wind_Direction
227 325 47 32 360 351 350 356 349 343 341 336 334 331 324 325 313 292 287 26 320 322 295 315 258 318 251 241 241 241 245 253 261 255 261 199 265 119 318 266 210 210 270 54 137
178 178 141 23 7 351 342 347 343 336 337 337 334 329 325 324 303 302 36 43 321 314 294 328 322 325 269 246 223 240 244 262 321 288 280 291 284 320 256 216 236 233 200 149 151
174 169 74 30 6 348 332 335 331 332 332 333 333 329 322 318 279 92 53 22 328 287 297 292 281 288 271 248 226 237 255 280 254 273 283 278 275 291 272 257 256 264 194 186 181
171 178 107 1 342 332 327 320 324 326 325 329 330 327 317 290 316 78 65 26 0 317 278 279 256 245 253 242 236 260 256 268 275 256 250 257 293 278 276 267 308 287 273 192 201
171 180 206 359 338 326 321 310 313 313 316 322 326 326 317 299 276 76 3 344 309 303 297 317 272 263 254 261 261 253 269 270 268 263 261 271 261 268 268 273 267 257 248 216 216
175 176 169 5 325 317 312 302 304 303 308 310 309 305 289 290 19 323 330 305 290 287 268 252 263 287 284 264 255 305 282 272 270 263 265 264 269 260 262 262 273 260 258 253 235
171 163 176 214 309 308 303 299 295 298 300 296 282 273 258 270 322 297 296 282 284 275 273 266 256 231 280 259 263 268 275 274 266 255 256 254 252 229 256 292 250 253 268 269 254
171 155 172 230 296 306 303 297 298 294 289 277 209 237 265 151 303 287 300 273 193 230 255 279 250 246 247 268 244 260 263 270 213 202 192 244 267 258 147 207 253 281 290 284 264
174 156 163 271 302 313 308 305 305 285 33 146 181 229 271 212 247 347 298 317 334 113 183 169 207 224 204 239 257 233 268 262 266 235 275 231 282 285 187 260 285 274 275 279 273
174 155 154 267 301 317 312 310 146 152 169 194 228 227 251 356 335 326 300 255 328 312 187 197 201 227 229 230 244 265 254 253 261 252 257 267 262 271 278 280 269 269 265 261 262
165 164 171 245 319 320 296 158 216 188 230 252 260 274 270 307 282 213 62 312 272 249 247 200 228 226 245 243 266 281 281 271 272 278 282 274 274 273 277 275 271 268 264 258 251
175 163 164 292 324 340 277 81 64 354 294 251 261 267 277 290 283 280 264 242 246 253 250 240 243 252 263 256 267 266 270 272 283 277 276 280 279 285 279 265 266 267 262 257 252
178 159 119 319 169 40 89 87 123 167 255 295 263 271 297 195 231 296 216 232 235 256 245 250 255 203 256 250 241 247 259 275 276 287 281 284 282 274 194 143 264 247 256 275 286
176 141 110 178 173 149 94 67 157 189 266 126 177 159 214 223 239 243 205 246 226 266 255 262 271 255 254 251 251 258 241 252 267 272 276 286 285 288 284 281 237 53 20 349 335
166 148 91 294 123 178 87 0 149 203 291 110 123 55 301 262 329 102 145 179 260 262 234 221 288 260 248 255 250 260 274 276 262 267 276 259 259 287 223 201 212 23 357 347 342
157 137 127 109 92 59 341 277 208 184 224 136 101 354 327 335 9 334 222 229 279 270 245 261 281 275 277 290 254 269 244 241 250 252 252 255 241 271 270 311 7 360 348 349 349
152 152 154 288 106 336 290 216 178 224 102 139 122 353 335 8 12 6 338 265 272 279 251 292 255 245 241 250 222 230 226 244 235 218 245 279 251 235 149 41 4 351 356 3 355
150 148 127 78 84 334 242 161 204 70 276 31 281 294 251 324 186 158 322 302 268 291 276 270 271 287 79 241 265 230 223 225 244 247 261 264 240 245 108 97 73 39 22 17 9
133 113 120 49 306 318 156 209 209 195 19 309 298 282 277 179 279 302 276 272 275 335 285 320 241 343 277 320 274 215 228 251 257 268 268 251 215 166 163 121 136 48 16 7 8
120 125 97 359 126 137 147 229 197 117 112 286 259 255 278 295 298 291 287 311 223 197 113 139 291 291 309 347 268 254 294 221 218 237 245 240 244 256 163 168 179 214 341 355 3
99 124 39 12 183 160 203 216 238 253 251 239 251 258 272 281 278 280 272 296 298 301 290 263 251 269 281 243 258 317 267 320 304 259 251 262 262 95 164 179 247 269 318 304 302
130 111 58 220 181 150 196 192 243 220 218 229 265 256 260 273 277 274 266 252 299 308 291 275 281 271 271 285 271 258 265 263 243 285 266 285 253 181 223 283 278 281 316 279 266
114 101 51 270 200 202 171 237 254 219 228 224 250 242 265 267 279 261 264 276 286 287 281 292 260 266 268 257 248 245 252 253 241 234 246 255 211 357 249 263 266 279 287 253 224
116 130 126 256 9 251 216 232 236 21 268 273 266 276 270 264 261 264 274 283 295 295 290 290 262 252 260 271 278 233 238 248 236 268 283 267 290 297 249 261 271 270 267 274 235
83 133 140 179 179 172 157 172 194 237 205 217 236 245 249 302 291 278 275 301 298 328 317 274 254 246 251 260 270 269 266 269 267 264 264 281 273 267 270 273 275 285 284 269 246
133 142 169 140 119 162 190 208 225 210 236 255 249 282 291 267 262 287 295 281 274 287 306 306 267 255 255 258 258 264 266 265 264 266 267 270 271 275 278 271 265 273 269 272 276
128 103 184 149 166 184 209 231 243 244 243 261 282 278 266 263 273 273 267 268 258 267 272 274 274 290 239 244 253 257 249 256 257 256 256 259 265 278 269 253 263 267 277 289 336